Find Starlink 30590

NORAD ID: 58090 Int'l Des: 2023-160 Owner: SPXS Country: US Constellation: starlink operational
LEOCIRCULAR

实时位置

正在加载3D地球...

关于 Starlink 30590

正在加载描述...

即将过境

Passes for default location (London). Set your location on the main map for personalized predictions.

高度历史

Loading altitude history...

两行轨道根数

1 58090U 23160R 26105.04784742 .00000594 00000-0 31100-4 0 9991
2 58090 42.9988 236.1732 0001501 280.4342 79.6340 15.27588985138467
Epoch: Apr 15, 2026 • Age: 9 hours

当前状态

高度 485.3 km
速度 7.62 km/s
星下点 -14.88°S, 143.11°W
发射日期 Oct 18, 2023
运行时间 2.4 years
类型 internet

技术详情

分类 Payload
质量 730.00 kg
干质量 700.00 kg
总质量 730.00 kg
长度 0.30 m
直径 4.10 m
跨度 29.00 m
形状 Box + pan
制造商 SPXS
平台类型 Starlink V2M
阶段状态 In Orbit
所有者/国家 SPXS/US

Most Searched